FALCON HEAVY R/B, 44345

Orbit data source: Space-Track

FALCON HEAVY R/B, 44345 is space debris originally from a launch on Tue, 25 Jun 2019 UTC launched from the Air Force Eastern Test Range (AFETR). Debris objects in space refer to the collection of defunct objects orbiting the Earth. Examples of debris include non-operational satellites, rocket bodies, and fragments generated from explosions, collisions, or faulty payload assembly.

Loading next visibility...
Identifier
44345, 2019-036G
Orbit
Active
Country
Flag of USUS
Related business
Manufacturer
SpaceX
Mission
Spacecraft
Bus & Motor
F9ST2, Unknown motor
Mass
~4,000 kg wet, ~4,000 kg dry
Launch date (UTC)
2019-06-25 (6 years ago)
Launch vehicle
Unknown
Launch site
Air Force Eastern Test Range (AFETR)
Object type
Payload
Rocket body
Debris
Shape & HBR
Cyl, Unknown HBR
Radar Cross Section
49.816 m², Large (>1 m²)

Expand to show TLE details & history
Last TLE update: 21 hours ago

TLE from 21 hours ago
0 FALCON HEAVY R/B
1 44345U 19036G   25242.61840665 -.00000050  00000-0  00000-0 0  9996
2 44345  42.3215  17.6560 2161349 346.1610   8.7454  4.69266623106000
Epoch: 2025-08-30T14:50Z
TLE epoch observation values (Epoch: 2025-08-30T14:50:30.334Z)
Latitude
-0.00004°
Longitude
175.9741°
Altitude
5,495.175 km
Speed
6.38 km/s
True Right ascension
01h 10m 36s
True Declination
0° 00' 00"
Sunlit
Object was in daylight at epoch
Visualization orbit readout
Latitude
Unknown
Longitude
Unknown
Altitude
Unknown
Speed
Unknown
Apparent Right ascension
Unknown
Apparent Declination
Unknown
Sunlit
N/A
Visualization observer readout
Local Sidereal Time
03:32:43
Azimuth
Unknown
Elevation
Unknown
Doppler factor
Unknown
Orbital elements
Apogee altitude
11,950.621 km
Perigee altitude
5,435.745 km
Semi-major axis
15,071.32 km
Eccentricity
0.21613
Inclination
42.3215°
RAAN
17.656°
Arg. of periapsis
346.161°
True anomaly
13.84859°
Mean anomaly
8.7454°
Eccentric anomaly
11.13746°
Mean motion
1.17305 °/min
Orbital period
306.89 mins
BSTAR
0
Loading maneuver chart data...
Computing Atmospheric mass density...
Loading historical data...
Loading historical data...
Loading historical data...
Loading historical data...
Loading historical data...
Loading historical data...
Loading historical data...

Documentation

Showing up to 5 results
|